Regional Weather Roundup
Issued by NWS

Home | Current Version | Previous Version | Text Only | Print | Product List | Glossary Off
Versions: 1 2 3 4 5 6 7 8 9 10 11 12 13 14 15 16 17 18 19 20 21 22 23 24 25 26 27 28 29 30 31 32 33 34 35 36 37 38 39 40 41 42 43 44 45 46 47 48 49 50

000
ASUS43 KTOP 181108
RWRKS

WEATHER ROUNDUP FOR KANSAS
NATIONAL WEATHER SERVICE GOODLAND KS
500 AM CST THU DEC 18 2014

NOTE:  "FAIR" INDICATES FEW OR NO CLOUDS BELOW 12,000 FEET WITH NO
SIGNIFICANT WEATHER AND/OR OBSTRUCTIONS TO VISIBILITY.

KSZ001>006-013>018-027>032-041>047-181200-
NORTHWEST KANSAS

CITY           SKY/WX    TMP DP  RH WIND       PRES   REMARKS
GOODLAND       FOG       11  11 100 CALM      30.03F VSB 1/4
HAYS           CLOUDY    27  18  69 E5        30.12S
HILL CITY      CLOUDY    26  24  92 E3        30.13R
RUSSELL        CLOUDY    26  25  96 NE6       30.12S
$$

KSZ061>065-074>080-084>089-181200-
SOUTHWEST KANSAS

CITY           SKY/WX    TMP DP  RH WIND       PRES   REMARKS
DODGE CITY     CLOUDY    29  26  89 E6        30.07F FOG
ELKHART          N/A     30  26  85 NW7         N/A
GARDEN CITY    CLOUDY    28  27  96 NE6       30.06S FOG
GREAT BEND     CLOUDY    27  21  80 E3        30.13S
LIBERAL        CLOUDY    34  28  80 NE6       30.06R VSB 1
PRATT          CLOUDY    30  28  93 NE3       30.11S FOG
$$

KSZ066>073-081>083-090>101-181200-
SOUTHEAST KANSAS

CITY           SKY/WX    TMP DP  RH WIND       PRES   REMARKS
CHANUTE        LGT SNOW  31  30  96 E6        30.16F FOG
COFFEYVILLE    CLOUDY    33  33 100 E7        30.16F FOG
HUTCHINSON     CLOUDY    30  27  88 MISG      30.13S FOG
MEDICINE LODGE   N/A     31  31 100 E6        30.10F
NEWTON         CLOUDY    28  23  80 NE3       30.14S
PARSONS        CLOUDY    33  33 100 CALM      30.17F FOG
WICHITA INTL   FLURRIES  32  29  88 E5        30.13S
WICHITA JABRA  CLOUDY    29  28  96 E5        30.12F
WICHITA MCCONL CLOUDY    31  29  95 NE5       30.13S
WINFIELD       CLOUDY    32  32 100 SE6       30.14S
$$

KSZ007>012-019>026-033>040-048>060-102>105-181200-
NORTHEAST KANSAS

CITY           SKY/WX    TMP DP  RH WIND       PRES   REMARKS
CONCORDIA      LGT SNOW  25  24  96 E6        30.16F FOG
EMPORIA        LGT SNOW  27  27 100 E6        30.15F FOG
LAWRENCE       LGT SNOW  28  26  92 E7        30.20F FOG
MANHATTAN      LGT SNOW  27  26  96 NE6       30.18F VSB 1
MARYSVILLE     LGT SNOW  28  27  93 CALM      30.19S
OLATHE IND     LGT SNOW  28  26  92 NE8       30.18F FOG
OLATHE EXE     LGT SNOW  28  27  96 NE7       30.18F FOG
SALINA         CLOUDY    28  25  88 NE5       30.16F
TOPEKA BILLARD LGT SNOW  29  27  92 E7        30.20F FOG
TOPEKA FORBES  LGT SNOW  29  26  89 E7        30.17F FOG
$$



USA.gov is the U.S. government's official web portal to all federal, state and local government web resources and services.